| time (UTC) | temp C | wind direction | speed KPH | gust KPH | rain 1hr cm | rain 24hr cm | rain mn cm | humidity % | barometer mb |
| 20260508061004 | 8 | 107 | 0.0 | 0.0 | 0.00 | 0.18 | 0.00 | 91 | 1009.2 |
| 20260508060005 | 7 | 98 | 0.0 | 0.0 | 0.00 | 0.18 | 0.00 | 91 | 1009.3 |
| 20260508055005 | 7 | 103 | 0.0 | 0.0 | 0.00 | 0.18 | 0.00 | 92 | 1009.3 |
| 20260508054004 | 7 | 92 | 0.0 | 0.0 | 0.00 | 0.18 | 0.00 | 92 | 1009.4 |
| 20260508053005 | 7 | 94 | 0.0 | 0.0 | 0.00 | 0.18 | 0.00 | 91 | 1009.4 |
| 20260508052004 | 7 | 103 | 0.0 | 0.0 | 0.00 | 0.18 | 0.00 | 91 | 1009.4 |
| 20260508051004 | 7 | 96 | 0.0 | 0.0 | 0.00 | 0.18 | 0.00 | 91 | 1009.3 |
| 20260508050004 | 7 | 96 | 0.0 | 0.0 | 0.00 | 0.18 | 0.00 | 91 | 1009.1 |
| 20260508045005 | 7 | 97 | 0.0 | 0.0 | 0.00 | 0.18 | 0.00 | 91 | 1009.2 |
| 20260508044005 | 7 | 97 | 0.0 | 0.0 | 0.00 | 0.18 | 0.00 | 91 | 1009.1 |
| 20260508042004 | 7 | 98 | 0.0 | 0.0 | 0.00 | 0.18 | 0.00 | 90 | 1008.9 |
| 20260508041005 | 7 | 98 | 0.0 | 0.0 | 0.00 | 0.18 | 0.00 | 90 | 1008.9 |
| 20260508040004 | 7 | 98 | 0.0 | 0.0 | 0.00 | 0.18 | 0.00 | 89 | 1008.8 |
| 20260508035005 | 7 | 98 | 0.0 | 0.0 | 0.00 | 0.18 | 0.00 | 89 | 1008.9 |
| 20260508034005 | 8 | 98 | 0.0 | 0.0 | 0.00 | 0.18 | 0.00 | 89 | 1008.9 |
| 20260508033004 | 8 | 98 | 0.0 | 0.0 | 0.00 | 0.18 | 0.00 | 89 | 1008.8 |
| 20260508032004 | 8 | 98 | 0.0 | 0.0 | 0.00 | 0.18 | 0.00 | 89 | 1008.8 |
| 20260508031004 | 8 | 98 | 0.0 | 0.0 | 0.00 | 0.18 | 0.00 | 89 | 1008.7 |
| 20260508030005 | 8 | 97 | 0.0 | 0.0 | 0.00 | 0.18 | 0.00 | 89 | 1008.8 |
| 20260508025005 | 8 | 88 | 0.0 | 0.0 | 0.00 | 0.18 | 0.00 | 89 | 1008.7 |
| 20260508024004 | 8 | 100 | 0.0 | 0.0 | 0.00 | 0.18 | 0.00 | 88 | 1008.6 |
| 20260508022004 | 8 | 99 | 0.0 | 0.0 | 0.00 | 0.18 | 0.00 | 87 | 1008.7 |
| 20260508021005 | 9 | 94 | 0.0 | 0.0 | 0.00 | 0.18 | 0.00 | 87 | 1008.8 |
| 20260508020005 | 9 | 101 | 0.0 | 0.0 | 0.00 | 0.18 | 0.00 | 86 | 1009.0 |
| 20260508015004 | 9 | 101 | 0.0 | 0.0 | 0.00 | 0.18 | 0.00 | 86 | 1009.0 |
| 20260508013005 | 10 | 101 | 0.0 | 0.0 | 0.00 | 0.18 | 0.00 | 85 | 1009.3 |
| 20260508005004 | 11 | 104 | 0.0 | 0.0 | 0.00 | 0.18 | 0.00 | 82 | 1009.8 |
| 20260508004004 | 11 | 102 | 0.0 | 0.0 | 0.00 | 0.18 | 0.00 | 82 | 1009.9 |
| 20260508003005 | 11 | 101 | 0.0 | 0.0 | 0.00 | 0.18 | 0.00 | 81 | 1009.9 |
| 20260508001004 | 11 | 101 | 0.0 | 0.0 | 0.00 | 0.18 | 0.00 | 82 | 1010.0 |
| 20260508000004 | 11 | 101 | 0.0 | 0.0 | 0.00 | 0.18 | 0.00 | 82 | 1010.1 |
| 20260507235004 | 11 | 107 | 0.0 | 0.0 | 0.00 | 0.18 | 0.18 | 82 | 1010.1 |
| 20260507234004 | 11 | 103 | 0.0 | 0.0 | 0.00 | 0.18 | 0.18 | 83 | 1010.1 |
| 20260507233005 | 11 | 101 | 0.0 | 0.0 | 0.00 | 0.18 | 0.18 | 83 | 1010.3 |
| 20260507232004 | 11 | 103 | 0.0 | 0.0 | 0.00 | 0.18 | 0.18 | 83 | 1010.3 |
| 20260507231005 | 11 | 115 | 0.0 | 1.6 | 0.00 | 0.18 | 0.18 | 83 | 1010.2 |
| 20260507230005 | 11 | 117 | 0.0 | 0.0 | 0.00 | 0.18 | 0.18 | 83 | 1010.3 |
| 20260507225004 | 11 | 110 | 0.0 | 0.0 | 0.00 | 0.18 | 0.18 | 83 | 1010.4 |
| 20260507224005 | 11 | 116 | 0.0 | 0.0 | 0.00 | 0.18 | 0.18 | 83 | 1010.5 |
| 20260507223004 | 11 | 100 | 0.0 | 0.0 | 0.00 | 0.18 | 0.18 | 82 | 1010.5 |
| 20260507222004 | 11 | 121 | 0.0 | 0.0 | 0.00 | 0.18 | 0.18 | 81 | 1010.6 |
| 20260507220004 | 12 | 123 | 0.0 | 0.0 | 0.00 | 0.18 | 0.18 | 81 | 1010.5 |
| 20260507215004 | 12 | 123 | 0.0 | 0.0 | 0.00 | 0.18 | 0.18 | 82 | 1010.5 |
| 20260507214005 | 12 | 123 | 0.0 | 0.0 | 0.00 | 0.18 | 0.18 | 82 | 1010.5 |
| 20260507213004 | 11 | 122 | 0.0 | 1.6 | 0.00 | 0.18 | 0.18 | 82 | 1010.5 |
| 20260507212004 | 12 | 103 | 0.0 | 0.0 | 0.00 | 0.18 | 0.18 | 81 | 1010.4 |
| 20260507211005 | 12 | 108 | 0.0 | 0.0 | 0.00 | 0.18 | 0.18 | 81 | 1010.3 |
| 20260507210005 | 12 | 98 | 0.0 | 0.0 | 0.00 | 0.18 | 0.18 | 81 | 1010.2 |
| 20260507204004 | 12 | 94 | 0.0 | 0.0 | 0.00 | 0.18 | 0.18 | 78 | 1009.9 |
| 20260507203004 | 13 | 91 | 0.0 | 0.0 | 0.00 | 0.18 | 0.18 | 76 | 1009.9 |
| 20260507202005 | 13 | 295 | 0.0 | 0.0 | 0.00 | 0.18 | 0.18 | 75 | 1009.8 |
| 20260507201003 | 13 | 295 | 0.0 | 0.0 | 0.00 | 0.18 | 0.18 | 75 | 1009.7 |
| 20260507200005 | 13 | 302 | 0.0 | 0.0 | 0.00 | 0.18 | 0.18 | 75 | 1009.7 |
| 20260507195005 | 13 | 331 | 0.0 | 0.0 | 0.00 | 0.18 | 0.18 | 75 | 1009.7 |
| 20260507194006 | 13 | 325 | 0.0 | 4.8 | 0.00 | 0.18 | 0.18 | 73 | 1009.8 |
| 20260507193005 | 13 | 265 | 0.0 | 4.8 | 0.00 | 0.18 | 0.18 | 71 | 1009.7 |
| 20260507192005 | 13 | 213 | 0.0 | 1.6 | 0.00 | 0.18 | 0.18 | 71 | 1009.4 |
| 20260507191005 | 13 | 218 | 0.0 | 1.6 | 0.00 | 0.18 | 0.18 | 70 | 1009.1 |
| 20260507190005 | 14 | 203 | 0.0 | 1.6 | 0.00 | 0.18 | 0.18 | 69 | 1009.1 |
| 20260507185004 | 14 | 204 | 1.6 | 8.0 | 0.00 | 0.18 | 0.18 | 68 | 1009.0 |
| 20260507184004 | 15 | 202 | 0.0 | 4.8 | 0.00 | 0.18 | 0.18 | 66 | 1008.9 |
| 20260507183004 | 15 | 96 | 0.0 | 3.2 | 0.00 | 0.18 | 0.18 | 65 | 1008.7 |
| 20260507182004 | 15 | 114 | 0.0 | 9.7 | 0.00 | 0.18 | 0.18 | 64 | 1008.5 |
| 20260507180004 | 16 | 104 | 1.6 | 12.9 | 0.00 | 0.18 | 0.18 | 64 | 1008.3 |
| 20260507174004 | 16 | 96 | 0.0 | 1.6 | 0.00 | 0.18 | 0.18 | 56 | 1008.3 |
| 20260507173005 | 17 | 98 | 0.0 | 11.3 | 0.00 | 0.18 | 0.18 | 58 | 1008.2 |
| 20260507171004 | 17 | 105 | 0.0 | 4.8 | 0.00 | 0.18 | 0.18 | 59 | 1008.2 |
| 20260507170004 | 17 | 109 | 0.0 | 9.7 | 0.00 | 0.18 | 0.18 | 58 | 1008.2 |
| 20260507165004 | 17 | 98 | 0.0 | 4.8 | 0.00 | 0.18 | 0.18 | 59 | 1008.2 |
| 20260507164005 | 17 | 82 | 0.0 | 8.0 | 0.00 | 0.18 | 0.18 | 60 | 1008.1 |
| 20260507163005 | 17 | 113 | 0.0 | 3.2 | 0.00 | 0.18 | 0.18 | 59 | 1008.2 |
| 20260507161004 | 17 | 52 | 0.0 | 9.7 | 0.00 | 0.18 | 0.18 | 61 | 1008.1 |
| 20260507160005 | 17 | 77 | 0.0 | 3.2 | 0.00 | 0.18 | 0.18 | 57 | 1008.1 |
| 20260507154004 | 18 | 64 | 0.0 | 0.0 | 0.00 | 0.18 | 0.18 | 52 | 1008.2 |
| 20260507153004 | 18 | 67 | 0.0 | 0.0 | 0.00 | 0.18 | 0.18 | 50 | 1008.2 |
| 20260507152004 | 18 | 120 | 0.0 | 0.0 | 0.00 | 0.18 | 0.18 | 51 | 1008.2 |
| 20260507150005 | 18 | 203 | 0.0 | 0.0 | 0.00 | 0.18 | 0.18 | 54 | 1008.1 |
| 20260507145004 | 18 | 249 | 0.0 | 0.0 | 0.00 | 0.18 | 0.18 | 53 | 1008.3 |
| 20260507143004 | 16 | 218 | 0.0 | 1.6 | 0.05 | 0.18 | 0.18 | 62 | 1008.4 |
| 20260507142005 | 15 | 220 | 0.0 | 0.0 | 0.18 | 0.18 | 0.18 | 68 | 1008.4 |
| 20260507135004 | 13 | 134 | 0.0 | 1.6 | 0.18 | 0.18 | 0.18 | 75 | 1009.0 |
| 20260507133004 | 13 | 188 | 0.0 | 19.3 | 0.13 | 0.13 | 0.13 | 75 | 1009.2 |
| 20260507132004 | 15 | 194 | 3.2 | 27.4 | 0.00 | 0.00 | 0.00 | 66 | 1009.2 |
| 20260507131005 | 16 | 204 | 4.8 | 24.1 | 0.00 | 0.00 | 0.00 | 57 | 1008.6 |
| 20260507130004 | 18 | 205 | 0.0 | 1.6 | 0.00 | 0.00 | 0.00 | 51 | 1008.4 |
| 20260507124004 | 19 | 61 | 0.0 | 0.0 | 0.00 | 0.00 | 0.00 | 51 | 1007.9 |
| 20260507123004 | 18 | 59 | 0.0 | 0.0 | 0.00 | 0.00 | 0.00 | 53 | 1008.1 |
| 20260507122004 | 19 | 49 | 0.0 | 0.0 | 0.00 | 0.00 | 0.00 | 53 | 1008.3 |
| 20260507121005 | 19 | 354 | 0.0 | 0.0 | 0.00 | 0.00 | 0.00 | 52 | 1008.3 |
| 20260507120006 | 19 | 355 | 0.0 | 0.0 | 0.00 | 0.00 | 0.00 | 54 | 1008.6 |
| 20260507115004 | 18 | 131 | 0.0 | 0.0 | 0.00 | 0.00 | 0.00 | 52 | 1008.7 |
| 20260507114004 | 18 | 125 | 0.0 | 0.0 | 0.00 | 0.00 | 0.00 | 55 | 1008.9 |
| 20260507113005 | 18 | 107 | 0.0 | 0.0 | 0.00 | 0.00 | 0.00 | 55 | 1008.9 |
| 20260507112004 | 17 | 122 | 0.0 | 0.0 | 0.00 | 0.00 | 0.00 | 56 | 1009.0 |
| 20260507111005 | 17 | 115 | 0.0 | 0.0 | 0.00 | 0.00 | 0.00 | 57 | 1009.1 |
| 20260507110005 | 17 | 115 | 0.0 | 0.0 | 0.00 | 0.00 | 0.00 | 58 | 1009.3 |
| 20260507105005 | 17 | 214 | 0.0 | 0.0 | 0.00 | 0.00 | 0.00 | 55 | 1009.4 |
| 20260507104004 | 17 | 196 | 0.0 | 0.0 | 0.00 | 0.00 | 0.00 | 59 | 1009.5 |
| 20260507103005 | 17 | 250 | 0.0 | 1.6 | 0.00 | 0.00 | 0.00 | 59 | 1009.7 |
| 20260507102006 | 17 | 200 | 0.0 | 3.2 | 0.00 | 0.00 | 0.00 | 58 | 1009.7 |
| 20260507101004 | 17 | 112 | 0.0 | 0.0 | 0.00 | 0.00 | 0.00 | 61 | 1009.7 |
| 20260507100005 | 16 | 180 | 0.0 | 0.0 | 0.00 | 0.00 | 0.00 | 65 | 1009.8 |
| 20260507095004 | 16 | 76 | 0.0 | 0.0 | 0.00 | 0.00 | 0.00 | 66 | 1009.8 |
| 20260507094005 | 16 | 96 | 0.0 | 0.0 | 0.00 | 0.00 | 0.00 | 67 | 1009.9 |
| 20260507093004 | 15 | 82 | 0.0 | 0.0 | 0.00 | 0.00 | 0.00 | 68 | 1010.0 |
| 20260507092004 | 15 | 87 | 0.0 | 0.0 | 0.00 | 0.00 | 0.00 | 65 | 1010.1 |
| 20260507091004 | 15 | 106 | 0.0 | 0.0 | 0.00 | 0.00 | 0.00 | 65 | 1010.1 |
| 20260507090005 | 14 | 97 | 0.0 | 0.0 | 0.00 | 0.00 | 0.00 | 69 | 1010.0 |
| 20260507085004 | 13 | 96 | 0.0 | 0.0 | 0.00 | 0.00 | 0.00 | 71 | 1010.1 |
| 20260507084004 | 13 | 81 | 0.0 | 0.0 | 0.00 | 0.00 | 0.00 | 73 | 1010.1 |
| 20260507083005 | 13 | 104 | 0.0 | 0.0 | 0.00 | 0.00 | 0.00 | 75 | 1010.2 |
| 20260507082004 | 12 | 126 | 0.0 | 0.0 | 0.00 | 0.00 | 0.00 | 76 | 1010.3 |
| 20260507081005 | 12 | 96 | 0.0 | 0.0 | 0.00 | 0.00 | 0.00 | 78 | 1010.3 |
| 20260507074005 | 11 | 89 | 0.0 | 0.0 | 0.00 | 0.00 | 0.00 | 84 | 1010.3 |
| 20260507073004 | 10 | 90 | 0.0 | 0.0 | 0.00 | 0.00 | 0.00 | 86 | 1010.2 |
| 20260507072004 | 10 | 66 | 0.0 | 0.0 | 0.00 | 0.00 | 0.00 | 87 | 1010.2 |
| 20260507071005 | 9 | 85 | 0.0 | 0.0 | 0.00 | 0.00 | 0.00 | 89 | 1010.2 |
| 20260507070009 | 8 | 63 | 0.0 | 0.0 | 0.00 | 0.00 | 0.00 | 89 | 1010.2 |
| 20260507065005 | 8 | 44 | 0.0 | 0.0 | 0.00 | 0.00 | 0.00 | 90 | 1010.3 |
| 20260507064004 | 8 | 78 | 0.0 | 0.0 | 0.00 | 0.00 | 0.00 | 89 | 1010.2 |
| 20260507063005 | 8 | 47 | 0.0 | 0.0 | 0.00 | 0.00 | 0.00 | 89 | 1010.4 |
| 20260507062004 | 8 | 54 | 0.0 | 0.0 | 0.00 | 0.00 | 0.00 | 89 | 1010.4 |